Probability
3 3 3 0 0 0 0 0 0 0 0 0 0 0 0 0 0 0 0 0 0 0 0 0 0 0 0 0 0 0 0 0 0 0 0 0 0 0 0 0 0 0 0
3 3 3 0 0 0 0 0 0 0 0 0 0 0 0 0 0 0 0 0 0 0 0 0 0 0 0 0 0 0 0 0 0 0 0 0 0 0 0 0 0 0 0
3 6 0 0 0 0 0 0 0 0 0 0 0 0 0 0 0 0 0 0 0 0 0 0 0 0 0 0 0 0 0 0 0 0 0 0 0 0 0 0 0 0 0
6 3 3 3 3 0 0 0 0 0 0 0 0 0 0 0 0 0 0 0 0 0 0 0 0 0 0 0 0 0 0 0 0 0 0 0 0 0 0 0 0 0 0
6 3 3 3 3 3 3 3 0 0 0 0 0 0 0 0 0 0 0 0 0 0 0 0 0 0 0 0 0 0 0 0 0 0 0 0 0 0 0 0 0 0 0
6 3 3 3 3 3 3 3 0 0 0 0 0 0 0 0 0 0 0 0 0 0 0 0 0 0 0 0 0 0 0 0 0 0 0 0 0 0 0 0 0 0 0
3 3 3 0 0 0 0 0 0 0 0 0 0 0 0 0 0 0 0 0 0 0 0 0 0 0 0 0 0 0 0 0 0 0 0 0 0 0 0 0 0 0 0
0 0 0 0 0 0 0 0 0 0 0 0 0 0 0 0 0 0 0 0 0 0 0 0 0 0 0 0 0 0 0 0 0 0 0 0 0 0 0 0 0 0 0
0 0 0 0 0 0 0 0 0 0 0 0 0 0 0 0 0 0 0 0 0 0 0 0 0 0 0 0 0 0 0 0 0 0 0 0 0 0 0 0 0 0 0
0 0 0 0 0 0 0 0 0 0 0 0 0 0 0 0 0 0 0 0 0 0 0 0 0 0 0 0 0 0 0 0 0 0 0 0 0 0 0 0 0 0 0
0 0 0 0 0 0 0 0 0 0 0 0 0 0 0 0 0 0 0 0 0 0 0 0 0 0 0 0 0 0 0 0 0 0 0 0 0 0 0 0 0 0 0
0 0 0 0 0 0 0 0 0 0 0 0 0 0 0 0 0 0 0 0 0 0 0 0 0 0 0 0 0 0 0 0 0 0 0 0 0 0 0 0 0 0 0
0 0 0 0 0 0 0 0 0 0 0 0 0 0 0 0 0 0 0 0 0 0 0 0 0 0 0 0 0 0 0 0 0 0 0 0 0 0 0 0 0 0 0
0 0 0 0 0 0 0 0 0 0 0 0 0 0 0 0 0 0 0 0 0 0 0 0 0 0 0 0 0 0 0 0 0 0 0 0 0 0 0 0 0 0 0
0 0 0 0 0 0 0 0 0 0 0 0 0 0 0 0 0 0 0 0 0 0 0 0 0 0 0 0 0 0 0 0 0 0 0 0 0 0 0 0 0 0 0
0 0 0 0 0 0 0 0 0 0 0 0 0 0 0 0 0 0 0 0 0 0 0 0 0 0 0 0 0 0 0 0 0 0 0 0 0 0 0 0 0 0 0
0 0 0 0 0 0 0 0 0 0 0 0 0 0 0 0 0 0 0 0 0 0 0 0 0 0 0 0 0 0 0 0 0 0 0 0 0 0 0 0 0 0 0
0 0 0 0 0 0 0 0 0 0 0 0 0 0 0 0 0 0 0 0 0 0 0 0 0 0 0 0 0 0 0 0 0 0 0 0 0 0 0 0 0 0 0
0 0 0 0 0 0 0 0 0 0 0 0 0 0 0 0 0 0 0 0 0 0 0 0 0 0 0 0 0 0 0 0 0 0 0 0 0 0 0 0 0 0 0
0 0 0 0 0 0 0 0 0 0 0 0 0 0 0 0 0 0 0 0 0 0 0 0 0 0 0 0 0 0 0 0 0 0 0 0 0 0 0 0 0 0 0
0 0 0 0 0 0 0 0 0 0 0 0 0 0 0 0 0 0 0 0 0 0 0 0 0 0 0 0 0 0 0 0 0 0 0 0 0 0 0 0 0 0 0
0 0 0 0 0 0 0 0 0 0 0 0 0 0 0 0 0 0 0 0 0 0 0 0 0 0 0 0 0 0 0 0 0 0 0 0 0 0 0 0 0 0 0
0 0 0 0 0 0 0 0 0 0 0 0 0 0 0 0 0 0 0 0 0 0 0 0 0 0 0 0 0 0 0 0 0 0 0 0 0 0 0 0 0 0 0
0 0 0 0 0 0 0 0 0 0 0 0 0 0 0 0 0 0 0 0 0 0 0 0 0 0 0 0 0 0 0 0 0 0 0 0 0 0 0 0 0 0 0
0 0 0 0 0 0 0 0 0 0 0 0 0 0 0 0 0 0 0 0 0 0 0 0 0 0 0 0 0 0 0 0 0 0 0 0 0 0 0 0 0 0 0
0 0 0 0 0 0 0 0 0 0 0 0 0 0 0 0 0 0 0 0 0 0 0 0 0 0 0 0 0 0 0 0 0 0 0 0 0 0 0 0 0 0 0
Height
5827 5829 5832 5834 5837 5839 5841 5843 5845 5847 5849 5850 5852 5853 5854 5855 5856 5857 5858 5859 5859 5859 5860 5860 5860 5860 5860 5860 5860 5860 5859 5859 5858 5857 5857 5856 5855 5854 5853 5852 5851 5850 5850
5827 5829 5831 5833 5835 5837 5839 5840 5842 5844 5845 5846 5848 5849 5850 5851 5851 5852 5852 5853 5853 5854 5854 5854 5854 5854 5854 5853 5853 5853 5852 5852 5851 5850 5849 5848 5847 5846 5846 5845 5844 5843 5842
5826 5827 5829 5831 5832 5834 5836 5837 5838 5840 5841 5842 5843 5844 5845 5845 5846 5846 5846 5847 5847 5847 5847 5847 5846 5846 5846 5846 5845 5845 5844 5843 5843 5842 5841 5840 5839 5838 5837 5836 5835 5834 5834
5824 5826 5827 5828 5830 5831 5832 5833 5835 5836 5836 5837 5837 5838 5838 5839 5839 5840 5840 5840 5839 5839 5839 5838 5838 5837 5837 5837 5836 5835 5834 5834 5833 5832 5832 5830 5829 5828 5827 5826 5825 5824 5824
5822 5823 5824 5825 5826 5827 5828 5829 5830 5831 5831 5831 5831 5831 5831 5832 5832 5832 5832 5831 5831 5830 5830 5829 5828 5828 5827 5826 5825 5824 5823 5822 5821 5821 5820 5820 5819 5817 5815 5814 5814 5813 5813
5819 5820 5821 5822 5822 5823 5824 5824 5825 5825 5825 5825 5825 5825 5825 5824 5824 5824 5823 5822 5822 5821 5820 5819 5818 5817 5816 5815 5814 5813 5811 5810 5809 5808 5807 5807 5806 5804 5803 5802 5801 5800 5801
5816 5816 5816 5817 5818 5818 5819 5820 5820 5819 5819 5819 5818 5818 5817 5817 5816 5815 5814 5814 5813 5811 5810 5809 5807 5806 5805 5803 5802 5800 5799 5797 5796 5795 5794 5793 5792 5791 5789 5788 5787 5786 5786
5811 5812 5812 5813 5814 5814 5814 5814 5813 5813 5812 5811 5811 5810 5809 5808 5807 5806 5805 5804 5802 5801 5799 5797 5796 5794 5792 5791 5789 5787 5786 5784 5782 5781 5780 5778 5777 5775 5774 5773 5772 5771 5771
5807 5807 5808 5808 5808 5808 5808 5807 5807 5806 5805 5804 5803 5801 5800 5799 5797 5796 5794 5793 5791 5789 5787 5786 5784 5782 5780 5778 5776 5774 5772 5770 5768 5766 5764 5763 5761 5759 5757 5756 5755 5754 5754
5802 5802 5802 5802 5802 5802 5801 5800 5799 5798 5796 5795 5794 5792 5790 5789 5787 5785 5783 5781 5779 5777 5774 5772 5770 5768 5766 5764 5762 5760 5758 5756 5754 5751 5749 5747 5745 5743 5740 5738 5737 5736 5735
5797 5797 5796 5796 5795 5795 5794 5792 5791 5789 5788 5786 5784 5782 5780 5778 5776 5774 5771 5769 5767 5764 5761 5759 5756 5754 5752 5749 5747 5745 5743 5741 5739 5736 5734 5731 5728 5726 5723 5720 5718 5716 5715
5790 5790 5789 5789 5788 5787 5785 5784 5782 5780 5778 5776 5774 5771 5769 5767 5764 5762 5759 5757 5754 5751 5748 5745 5742 5740 5737 5734 5731 5729 5726 5724 5722 5719 5717 5714 5711 5708 5705 5702 5699 5696 5694
5782 5782 5782 5781 5779 5778 5776 5774 5772 5770 5768 5765 5763 5760 5757 5755 5752 5749 5747 5744 5740 5737 5734 5731 5728 5724 5721 5718 5715 5712 5709 5706 5703 5700 5697 5694 5691 5688 5685 5682 5678 5675 5673
5775 5774 5773 5771 5770 5768 5766 5764 5762 5759 5757 5754 5751 5748 5745 5742 5739 5736 5732 5729 5726 5722 5718 5715 5711 5708 5704 5700 5697 5693 5689 5686 5683 5680 5677 5673 5670 5666 5663 5659 5656 5653 5651
5767 5766 5764 5762 5760 5758 5755 5753 5751 5748 5745 5742 5739 5736 5732 5729 5725 5721 5717 5714 5710 5706 5702 5698 5694 5690 5686 5681 5677 5673 5669 5666 5662 5659 5655 5652 5648 5645 5641 5637 5633 5630 5628
5758 5757 5755 5752 5750 5748 5745 5742 5739 5736 5733 5729 5726 5722 5718 5714 5710 5706 5702 5697 5693 5689 5684 5680 5675 5671 5667 5663 5659 5654 5650 5645 5642 5638 5634 5630 5626 5623 5619 5615 5611 5608 5606
5749 5747 5745 5743 5740 5737 5734 5731 5727 5724 5720 5716 5712 5708 5703 5699 5694 5689 5685 5680 5676 5671 5667 5662 5657 5653 5648 5644 5640 5636 5631 5627 5622 5618 5614 5610 5607 5603 5599 5596 5592 5589 5586
5740 5737 5735 5732 5729 5726 5722 5719 5715 5710 5706 5701 5697 5692 5687 5682 5677 5673 5668 5663 5658 5653 5648 5644 5639 5635 5630 5626 5622 5618 5614 5609 5605 5601 5597 5593 5589 5585 5582 5579 5576 5573 5570
5730 5727 5724 5721 5717 5714 5710 5705 5701 5696 5691 5686 5681 5676 5671 5665 5660 5655 5650 5646 5641 5636 5631 5626 5622 5617 5613 5609 5605 5601 5597 5594 5590 5586 5582 5578 5574 5570 5567 5564 5561 5559 5556
5720 5716 5713 5709 5705 5701 5696 5691 5686 5681 5676 5671 5665 5660 5654 5649 5644 5639 5634 5629 5625 5620 5615 5611 5606 5602 5598 5594 5591 5587 5583 5579 5576 5572 5568 5565 5561 5558 5555 5552 5550 5547 5545
5708 5704 5701 5696 5692 5687 5682 5677 5672 5667 5661 5656 5651 5645 5640 5635 5630 5625 5620 5615 5611 5606 5602 5598 5594 5590 5586 5582 5578 5575 5571 5567 5564 5560 5557 5553 5550 5547 5544 5542 5539 5537 5535
5696 5692 5688 5683 5678 5674 5668 5663 5658 5653 5647 5642 5637 5632 5627 5622 5617 5612 5608 5603 5599 5595 5591 5586 5582 5579 5575 5572 5568 5565 5561 5557 5553 5550 5547 5544 5541 5538 5535 5533 5530 5528 5526
5684 5679 5675 5670 5665 5661 5656 5651 5645 5640 5635 5630 5625 5620 5615 5610 5606 5601 5597 5593 5589 5585 5581 5577 5573 5570 5566 5562 5559 5555 5552 5548 5545 5541 5539 5535 5532 5530 5528 5525 5523 5520 5518
5672 5667 5663 5658 5653 5649 5644 5639 5634 5629 5624 5619 5614 5610 5605 5600 5596 5592 5588 5584 5580 5576 5572 5569 5565 5561 5558 5554 5550 5547 5543 5540 5537 5534 5531 5528 5526 5523 5521 5518 5516 5514 5512
5660 5656 5651 5647 5643 5638 5633 5629 5623 5619 5614 5609 5604 5600 5596 5591 5587 5583 5580 5576 5572 5568 5565 5561 5557 5554 5550 5546 5543 5539 5536 5533 5530 5527 5524 5522 5520 5517 5515 5513 5511 5508 5506
5649 5645 5641 5636 5632 5627 5623 5618 5613 5608 5604 5599 5595 5591 5587 5583 5579 5575 5572 5568 5565 5561 5557 5554 5550 5546 5543 5539 5536 5533 5530 5527 5524 5521 5518 5516 5514 5512 5509 5507 5505 5503 5501
Wind_Speed
12 13 14 14 15 15 15 15 16 16 16 16 17 18 18 19 20 20 20 21 21 22 22 22 22 22 23 23 23 23 23 23 24 24 25 25 25 25 26 26 27 27 27
10 10 12 13 14 15 15 16 17 17 17 18 19 20 21 21 22 23 23 24 24 25 25 26 26 26 27 27 27 27 27 27 28 28 28 29 29 30 30 30 31 31 31
9 10 11 12 13 15 16 17 17 18 19 20 21 22 23 24 25 25 26 27 27 28 29 29 30 30 31 31 31 31 31 32 32 32 32 33 33 34 34 35 35 35 35
9 10 11 12 13 15 16 17 18 19 20 22 23 24 25 25 27 28 29 30 31 31 32 33 33 34 34 35 35 35 36 36 36 36 36 37 37 38 38 39 39 39 39
9 10 11 12 13 15 17 18 19 20 22 24 25 26 27 27 29 31 32 33 34 35 35 36 37 37 38 39 39 40 40 40 40 41 40 40 41 42 43 43 42 42 42
12 12 13 14 15 15 17 18 20 22 23 25 26 27 28 29 30 32 34 35 35 36 37 38 39 40 41 42 43 43 44 44 44 45 45 45 45 45 46 47 47 47 46
14 15 16 15 16 17 18 19 22 23 25 26 27 28 29 30 32 33 35 36 37 38 40 41 42 44 44 45 46 46 47 47 48 48 49 49 49 49 50 50 51 51 50
17 18 18 18 19 19 20 21 23 25 26 27 29 30 31 33 34 36 37 38 39 40 41 43 44 45 46 46 47 49 50 50 51 52 52 52 53 53 53 54 54 54 53
17 18 19 20 21 21 22 23 24 25 27 29 30 32 33 35 36 37 39 40 42 43 44 45 46 47 47 48 50 51 51 52 53 54 55 55 56 56 56 56 56 56 55
19 20 20 20 21 22 24 26 27 28 30 31 32 34 36 37 38 39 41 43 44 45 46 47 48 48 49 50 51 52 53 54 55 56 56 56 57 57 58 59 59 59 59
22 22 22 23 24 26 27 29 30 31 32 33 34 35 37 39 40 42 43 44 46 47 47 48 49 50 52 52 53 53 54 55 55 56 57 58 60 60 61 63 64 65 65
24 24 25 26 28 29 29 31 32 33 34 35 36 37 38 39 41 43 44 45 46 47 49 49 50 51 52 53 54 55 57 58 58 59 60 61 63 64 65 66 68 69 70
25 26 27 28 30 31 32 33 34 35 36 37 38 39 40 41 43 44 46 47 48 49 51 52 52 53 55 56 57 59 60 61 62 63 64 65 66 67 68 69 70 71 72
27 29 30 31 32 33 35 35 37 38 38 39 40 41 42 43 45 46 48 49 51 52 54 55 56 56 58 59 61 62 63 64 65 65 66 67 68 68 69 70 71 71 71
29 30 31 32 33 34 36 36 37 38 39 40 42 43 45 46 48 50 51 52 53 55 56 57 58 59 60 62 63 64 64 65 65 66 67 67 67 68 68 69 69 69 69
29 31 32 34 35 36 37 38 39 41 42 44 45 47 48 50 51 53 54 55 56 57 58 58 59 60 61 61 62 62 63 64 64 65 65 65 65 65 65 64 64 63 63
31 33 34 36 37 38 39 41 42 44 46 47 49 50 52 53 54 55 56 57 58 59 59 60 60 61 61 61 60 60 60 60 60 60 60 60 60 59 58 57 57 56 55
33 34 36 38 39 41 42 44 45 47 49 50 52 53 54 55 56 57 58 58 58 59 59 58 58 58 58 57 56 56 55 55 55 54 54 53 52 51 50 49 48 47 47
35 36 38 40 42 44 46 47 49 50 51 53 54 55 55 56 57 57 57 56 56 55 55 55 54 54 53 52 51 50 50 49 48 47 46 45 44 43 42 41 40 40 40
37 39 41 43 45 47 48 49 50 51 52 53 54 54 55 54 54 54 52 52 51 50 50 49 48 47 45 44 44 43 43 42 41 40 40 39 38 37 36 35 34 34 34
41 43 45 46 47 48 49 50 50 51 52 52 52 51 51 50 49 48 47 46 45 44 43 42 41 40 39 38 37 37 36 36 36 35 35 34 33 32 31 30 30 30 30
44 45 46 46 47 48 49 49 49 50 49 49 48 48 46 45 44 43 42 41 40 39 38 37 36 34 34 34 33 33 33 33 32 31 31 30 30 29 28 28 27 27 27
43 45 46 46 47 47 47 46 46 45 45 44 43 41 41 40 39 38 37 36 35 34 33 32 31 31 31 31 30 30 30 28 28 27 27 27 27 26 25 25 24 24 23
43 44 44 44 44 43 42 42 42 41 40 40 39 38 36 36 35 33 32 32 31 30 30 30 30 29 29 29 29 29 28 26 25 24 24 24 23 23 22 22 22 21 21
42 42 41 40 40 39 39 39 39 38 37 37 36 35 33 33 32 31 30 29 29 29 29 29 28 28 28 27 27 26 26 24 23 22 21 21 21 20 20 20 19 20 20
40 39 38 38 37 37 37 37 36 36 35 34 33 32 31 31 30 29 29 28 28 28 28 28 28 27 27 26 25 24 24 23 22 22 21 20 20 20 19 19 19 19 19
Wind_Direction
208 213 214 217 222 223 225 230 233 237 240 243 246 249 253 256 258 260 261 262 264 265 267 268 269 270 271 272 272 272 273 275 276 276 276 276 275 274 273 272 272 272 272
209 215 218 220 224 227 231 235 239 244 247 249 252 254 257 259 261 262 263 264 265 267 268 269 270 271 271 272 272 272 272 272 273 274 274 274 274 274 273 272 272 271 271
220 223 225 229 235 239 242 243 246 249 252 256 258 260 262 264 265 266 266 267 268 269 270 271 272 273 273 273 273 273 272 272 272 272 273 273 273 274 273 272 272 272 272
237 236 239 241 242 246 248 251 254 255 258 261 263 263 265 267 268 268 268 269 269 270 271 272 272 273 273 274 274 274 273 272 272 272 272 272 273 273 273 272 272 272 272
251 252 250 249 251 251 252 255 258 260 263 264 265 266 266 267 269 269 269 270 270 270 271 273 273 273 274 274 274 274 274 273 272 272 272 272 273 273 273 273 272 271 271
258 259 260 257 257 258 257 259 261 264 267 268 268 269 271 271 271 272 271 272 272 272 273 275 275 274 274 274 275 275 275 275 274 274 274 274 274 274 273 273 273 272 271
261 265 262 263 266 267 264 265 267 269 271 271 269 271 273 273 272 272 273 273 274 274 274 274 273 274 274 275 274 275 275 275 275 275 274 274 274 275 274 274 274 273 273
262 265 267 266 270 270 271 272 274 272 273 273 272 273 273 272 273 273 273 273 274 275 274 275 276 276 275 274 274 275 275 276 276 276 276 275 276 276 275 275 274 273 273
267 269 269 269 271 273 275 277 278 280 278 277 276 275 276 275 275 274 273 274 275 275 275 276 276 276 276 275 275 275 275 276 276 276 277 278 277 277 277 276 276 275 274
269 272 273 274 275 276 278 279 279 280 280 279 278 277 276 276 276 276 275 275 275 276 276 276 276 275 275 275 276 275 276 276 277 277 278 278 277 277 277 276 276 276 275
269 273 274 275 276 278 279 280 281 281 280 280 280 279 278 278 278 278 278 278 278 278 278 277 276 276 276 276 276 276 277 277 276 277 277 277 277 278 278 277 277 277 276
270 272 275 277 278 279 281 282 283 282 282 282 282 281 281 280 280 280 280 281 281 280 279 278 278 278 278 278 277 277 277 277 277 277 277 277 277 277 277 277 277 277 277
272 275 277 279 281 281 282 284 285 285 285 285 285 284 283 282 282 283 282 282 281 281 281 280 280 280 280 280 279 279 279 278 278 278 278 278 278 278 278 278 278 278 278
275 278 280 282 283 284 286 287 288 288 287 287 286 285 284 284 283 284 283 283 282 282 281 280 281 281 281 281 281 280 280 279 280 280 280 280 280 279 279 279 280 279 279
278 280 282 284 285 287 288 289 289 288 288 288 288 288 287 286 285 285 284 284 284 284 283 283 283 283 283 283 283 282 282 282 282 282 281 282 282 281 281 281 281 281 280
280 283 285 287 289 290 290 290 290 290 290 290 290 289 288 287 287 286 286 286 285 285 285 285 285 285 285 285 285 284 284 284 284 284 284 284 284 283 283 282 282 282 281
283 286 287 289 290 290 291 291 291 291 291 290 289 289 288 288 288 287 287 287 286 286 287 287 287 287 286 286 286 286 286 286 286 287 287 286 286 285 284 283 283 283 282
286 287 289 290 291 291 292 292 292 292 291 291 291 290 290 289 289 289 289 289 289 289 289 289 289 289 288 288 288 288 288 288 288 288 288 288 287 287 285 285 284 284 283
288 289 290 291 292 292 293 293 293 293 293 293 293 292 291 291 291 291 292 292 292 292 292 292 291 290 290 290 290 290 290 290 290 290 290 289 289 288 287 287 286 286 286
290 291 291 292 293 293 294 294 295 295 295 295 294 294 294 294 294 295 295 295 295 295 295 295 294 294 294 293 293 293 293 292 292 292 292 291 291 291 290 289 288 288 288
292 292 293 294 295 295 296 296 296 296 296 296 296 296 296 296 297 297 298 298 298 298 297 297 296 296 296 296 296 297 296 295 294 294 294 293 293 293 292 291 291 291 291
294 294 295 296 296 297 297 297 297 298 298 298 298 298 299 299 299 299 300 300 300 300 299 299 298 298 297 298 298 299 300 298 296 296 296 296 296 295 294 293 293 293 293
295 296 296 297 298 298 299 300 300 300 300 301 301 301 301 301 301 302 302 302 303 303 302 301 300 300 300 300 300 302 303 302 300 298 298 298 298 297 296 296 296 296 295
296 297 298 298 299 300 301 301 301 302 302 302 302 302 302 303 304 304 303 304 305 305 305 304 303 302 303 303 303 304 305 304 303 302 301 301 300 299 298 298 297 297 296
298 298 298 299 300 300 301 302 303 303 303 303 303 303 303 304 304 304 304 305 306 306 306 307 306 305 305 305 305 305 306 306 305 305 304 303 302 301 300 300 299 299 298
298 298 299 299 300 301 302 304 305 305 305 304 304 304 304 304 304 304 304 305 306 306 307 307 307 308 308 307 307 306 306 306 307 307 307 305 304 302 302 302 301 301 300